COSMOS 1652 (GLONASS)

Satellite information

Favourite Embed

Satellite Type and Status

PAYLOADIN ORBIT

Key statistics

Satellite COSMOS 1652 (GLONASS) at a glance.

Uptime

14723

Days in orbit

Revolutions

≈ 2.1

Per day

Orbit

MEO

Medium Earth Orbit

Inclination

64.7

Latest

Satellite identification and parameters

Extended collection of information and parameters for COSMOS 1652 (GLONASS).

Object identification

Identified? True

Debris? False

Object name: COSMOS 1652 (GLONASS)

International designator: 1985-037C

Object number (NORAD): 15699

Object ID (CCSDS): 15699

Country: COMMONWEALTH OF INDEPENDENT STATES (CIS)

Current information (Y/N): Y

RCS size: MEDIUM

Orbital parameters

Period: 675.842 minutes

Inclination: 64.7074 deg

SMA: 25510.78 km

Apoapsis: 19179.035 km

Periapsis: 19086.255 km

RAAN: 82.9579 deg

Eccentricy: 0.00181844

Argument of periapsis: 27.0998 deg

Mean anomaly: 161.5823 deg

Mean motion: 2.13067472 rev/day

Mean motion (dot): 0.0000005 rev/day2

B* drag term: 0.0 1/REarth

Two-line elements (TLE)

Creation date: Sept. 4, 2025, 4:29 a.m.

Reference frame: TEME

Reference center: EARTH

Epoch: Sept. 3, 2025, 1:24 p.m. UTC

TLE line 0: 0 COSMOS 1652 (GLONASS)

TLE line 1: 1 15699U 85037C 25246.55902677 .00000050 00000-0 00000-0 0 9998

TLE line 2: 2 15699 64.7074 82.9579 0018184 27.0998 161.5823 2.13067472313552

Live tracking on map

Real-time ground track for satellite COSMOS 1652 (GLONASS).

In-orbit conjunctions

A list of the most updated potential collisions computed for object COSMOS 1652 (GLONASS).

Target Orbit TCA Probability of collision Miss distance Type
COSMOS 1520 (GLONASS) MEO 2025-01-12 04:41:44 TBA 3756.0 (m) PAYLOAD

Associated space launch

GLONASS navigation satellites

COSMOS 1652 (GLONASS) was lifted into orbit during the mission ‘Proton | Uragan 10 & 11’, on board a Proton space rocket.

The launch took place on May 17, 1985, 10:28 p.m. from 200/39 (200L).

For more information about the launch, click the button.

Launch to space Proton | Uragan 10 & 11
Proton | Uragan 10 & 11

Agency: N/A

Status: Launch Successful

Launch date: May 17, 1985, 10:28 p.m. UTC

Rocket: Proton

Launch pad: 200/39 (200L)

Location: Baikonur Cosmodrome, Republic of Kazakhstan

...

Latest news about this satellite

There are no fresh news available about this satellite. Check back as we update our databases every day.


Newsletter sign-up

Weekly statistics, charts and insights to help you stay on top of the space industry.